JR5YHL-13 Weather Reports


time (UTC)temp
F
wind
direction
speed
knots
gust
knots
rain 1hr
in
rain 24hr
in
rain mn
in
humidity
%
barometer
mb
20260504130723 57 180 0.0 0.9 0.00 0.00 0.00 71 1016.3
20260504081829 67 315 1.7 9.6 0.00 0.62 0.00 31 1010.8
20260504080831 67 90 3.5 7.0 0.00 0.64 0.00 30 1010.8
20260504045914 75 270 5.2 12.2 0.00 1.38 0.00 25 1007.8
20260504044916 76 225 7.0 20.9 0.00 1.44 0.00 25 1007.8
20260504043919 76 225 5.2 13.9 0.00 1.45 0.00 25 1008.0
20260504042921 76 203 7.0 14.8 0.00 1.47 0.00 26 1008.1
20260504041923 76 270 7.8 16.5 0.00 1.51 0.00 25 1008.0
20260504040925 75 270 7.0 19.1 0.00 1.54 0.00 27 1008.0
20260504035928 74 270 7.8 13.0 0.00 1.54 0.00 28 1008.2
20260504034930 72 270 7.0 16.5 0.00 1.57 0.00 31 1008.2
20260504033932 72 225 8.7 16.5 0.00 1.59 0.00 30 1008.2
20260504032934 71 315 7.0 19.1 0.00 1.60 0.00 32 1008.1
20260504031937 71 270 8.7 20.0 0.00 1.61 0.00 32 1008.3
20260504030939 71 270 7.0 20.0 0.00 1.61 0.00 34 1008.3
20260504025941 70 225 4.3 11.3 0.00 1.62 0.00 38 1008.2
20260504024944 69 0 5.2 19.1 0.00 1.62 0.00 37 1008.5
20260504023946 70 225 3.5 13.0 0.00 1.64 0.00 39 1008.3
20260504022948 69 270 3.5 14.8 0.00 1.64 0.00 38 1008.3
20260504021951 69 225 4.3 12.2 0.00 1.64 0.00 39 1008.1
20260504020953 69 225 3.5 13.0 0.00 1.64 0.00 39 1008.2
20260504015955 69 315 3.5 13.9 0.00 1.64 0.00 39 1008.0
20260504014958 69 270 3.5 8.7 0.00 1.65 0.00 40 1007.9
20260504014000 69 270 3.5 13.9 0.00 1.65 0.00 38 1008.0
20260504013002 70 225 5.2 11.3 0.00 1.65 0.00 41 1008.0
20260504012004 70 248 7.0 17.4 0.00 1.65 0.00 39 1007.7
20260504011007 69 315 5.2 11.3 0.00 1.65 0.00 41 1007.4
20260504010009 69 270 5.2 16.5 0.00 1.65 0.00 40 1007.5
20260504005011 70 270 4.3 16.5 0.00 1.65 0.00 39 1007.4
20260504004014 71 270 5.2 13.0 0.00 1.65 0.00 40 1007.4
20260504003016 72 225 5.2 13.9 0.00 1.66 0.00 39 1007.2
20260504002018 73 225 4.3 11.3 0.00 1.66 0.00 39 1007.2
20260504001020 74 270 3.5 7.0 0.00 1.66 0.00 42 1007.2
20260504000023 73 225 3.5 11.3 0.00 1.66 0.00 43 1007.1
20260503235025 71 225 5.2 13.9 0.00 1.66 0.00 43 1007.1
20260503234027 72 270 4.3 9.6 0.00 1.66 0.00 44 1007.0
20260503233029 71 90 4.3 9.6 0.00 1.67 0.00 51 1007.0
20260503232032 71 225 3.5 9.6 0.00 1.67 0.00 55 1007.0
20260503231034 70 270 3.5 8.7 0.00 1.67 0.00 55 1006.9
20260503230036 70 225 3.5 9.6 0.00 1.67 0.00 59 1006.7
20260503225039 68 293 4.3 7.8 0.00 1.67 0.00 61 1006.9
20260503224041 68 225 4.3 10.4 0.00 1.67 0.00 65 1006.9
20260503223043 67 225 1.7 6.1 0.00 1.67 0.00 69 1006.6
20260503222046 67 315 1.7 7.0 0.00 1.67 0.00 79 1006.5
20260503221047 65 225 0.0 5.2 0.00 1.67 0.00 83 1006.6
20260503220050 64 180 0.9 4.3 0.00 1.67 0.00 86 1006.5
20260503215052 64 225 1.7 5.2 0.00 1.67 0.00 90 1006.5
20260503214055 63 248 1.7 5.2 0.00 1.67 0.00 95 1006.4
20260503213057 62 225 0.9 6.1 0.00 1.67 0.00 99 1006.3
20260503212059 61 270 2.6 6.1 0.00 1.67 0.00 99 1006.3
20260503211102 60 293 1.7 4.3 0.00 1.67 0.00 99 1006.5
20260503210104 60 270 5.2 13.0 0.00 1.67 0.00 99 1005.9
20260503205107 59 270 6.1 13.9 0.00 1.67 0.00 99 1005.4
20260503204109 59 225 3.5 7.8 0.00 1.67 0.00 99 1005.3
20260503203111 59 225 1.7 7.0 0.00 1.67 0.00 99 1004.7
20260503202114 60 270 2.6 7.0 0.00 1.67 0.00 99 1004.3
20260503201116 60 225 1.7 7.0 0.00 1.67 0.00 99 1004.5
20260503200119 60 225 1.7 5.2 0.00 1.67 0.00 99 1004.4
20260503195121 60 225 3.5 9.6 0.00 1.67 0.00 99 1004.3
20260503194123 61 225 2.6 8.7 0.00 1.67 0.00 99 1004.5
20260503193125 61 270 4.3 7.8 0.00 1.67 0.00 99 1004.6
20260503192128 62 270 3.5 7.0 0.00 1.67 0.00 99 1004.3
20260503191130 62 225 3.5 6.1 0.00 1.67 0.00 99 1004.4
20260503190132 62 270 1.7 6.1 0.00 1.67 0.00 99 1004.1
20260503185135 62 270 1.7 7.8 0.00 1.67 0.00 99 1004.0
20260503184137 62 270 2.6 6.1 0.00 1.67 0.00 99 1004.0
20260503183139 63 248 0.0 2.6 0.00 1.67 0.00 99 1004.1
20260503182141 63 248 1.7 4.3 0.00 1.67 0.00 99 1004.3
20260503181144 63 270 1.7 4.3 0.00 1.67 0.00 99 1003.9
20260503180146 63 225 0.9 4.3 0.00 1.67 0.00 99 1003.7
20260503175148 63 270 1.7 4.3 0.00 1.67 0.00 99 1003.6
20260503174151 63 225 1.7 3.5 0.00 1.67 0.00 99 1003.4
20260503173153 63 270 1.7 3.5 0.00 1.67 0.00 99 1003.3
20260503172156 63 270 1.7 2.6 0.00 1.67 0.00 99 1003.3
20260503171158 63 225 1.7 2.6 0.00 1.67 0.00 99 1003.1
20260503170201 63 248 1.7 4.3 0.00 1.67 0.00 99 1003.0
20260503160217 63 225 1.7 4.3 0.00 1.67 0.00 99 1002.7
20260503150230 64 315 0.0 0.9 0.00 1.67 0.00 99 1002.4
20260503140246 63 270 1.7 6.1 0.00 1.67 0.00 99 1002.2